NWS 03 current weather conditions

sailwx.info

Wind from 253 at 1 knots

Air temperature 30.2° C
Dewpoint 25.2° C

Last reported at 2020-Jul-10 02:21 UTC.
Time now 2020-Jul-10 03:16 UTC

Location: N 26°40' W 080°04'.
View on Google Maps.

See reports from other nearby stations

  
Tides and Currents Weather Stations Pressure Air Temp Water Temp Dewpoint Dewpoint Depression Visibility Wind Speed Wind Dir Waves Ship Positions
date/time (UTC)wind fromknots sea level pressurealtimeterstation pressurevisibilityair tempwater tempwave heightnotes
2020-Jul-10 02:21 253 1 30.2
2020-Jul-10 02:16 156 2 30.3
2020-Jul-10 02:11 122 1 30.2
2020-Jul-10 02:06 135 1 30.2
2020-Jul-10 02:01 334 0 30.3
2020-Jul-10 01:56 203 1 30.2
2020-Jul-10 01:51 217 3 30.2
2020-Jul-10 01:46 250 2 30.2
2020-Jul-10 01:41 199 2 30.1
2020-Jul-10 01:36 137 2 30.1
2020-Jul-10 01:31 198 1 30.1
2020-Jul-10 01:26 129 0 30.1
2020-Jul-10 01:21 152 1 30.2
2020-Jul-10 01:16 120 1 30.2
2020-Jul-10 01:11 276 1 30.2
2020-Jul-10 01:06 161 3 30.2
2020-Jul-10 01:01 138 2 30.3
2020-Jul-10 00:56 186 3 30.3
2020-Jul-10 00:51 226 1 30.3
2020-Jul-10 00:46 139 2 30.3
2020-Jul-10 00:41 155 3 30.3
2020-Jul-10 00:36 129 2 30.3
2020-Jul-10 00:31 151 4 30.3
2020-Jul-10 00:26 123 1 30.3
2020-Jul-10 00:21 198 2 30.4
2020-Jul-10 00:16 175 2 30.4
2020-Jul-10 00:11 206 2 30.3
2020-Jul-10 00:06 140 1 30.4
2020-Jul-10 00:01 223 2 30.4
2020-Jul-09 23:55 228 4 30.5
2020-Jul-09 23:50 196 2 30.7
2020-Jul-09 23:45 062 1 30.8
2020-Jul-09 23:40 169 2 30.9
2020-Jul-09 23:35 056 1 31.0
2020-Jul-09 23:30 161 1 31.1
2020-Jul-09 23:25 165 2 31.1
2020-Jul-09 23:20 084 0 31.2
2020-Jul-09 23:15 153 3 31.2
2020-Jul-09 23:10 178 3 31.3
2020-Jul-09 23:05 202 1 31.6
2020-Jul-09 23:00 153 2 31.9
2020-Jul-09 22:55 157 2 31.7
2020-Jul-09 22:50 211 0 32.0
2020-Jul-09 22:45 183 1 31.9
2020-Jul-09 22:40 177 1 31.8
2020-Jul-09 22:35 176 2 31.9
2020-Jul-09 22:30 249 0 31.7
2020-Jul-09 22:25 143 4 31.9
2020-Jul-09 22:20 180 1 32.0
2020-Jul-09 22:15 148 2 32.2
2020-Jul-09 22:10 137 2 31.9
2020-Jul-09 22:05 192 1 32.2
2020-Jul-09 22:00 174 1 31.9
2020-Jul-09 21:55 161 2 32.4
2020-Jul-09 21:50 202 2 32.7
2020-Jul-09 21:45 151 2 32.9
2020-Jul-09 21:40 156 2 33.1
2020-Jul-09 21:35 131 0 33.1
2020-Jul-09 21:30 140 1 33.3
2020-Jul-09 21:25 160 2 33.3
2020-Jul-09 21:20 222 2 33.5
2020-Jul-09 21:15 180 2 33.5
2020-Jul-09 21:10 167 3 33.4
2020-Jul-09 21:05 172 3 33.1
2020-Jul-09 21:00 158 3 33.7
2020-Jul-09 20:55 246 0 34.0
2020-Jul-09 20:50 190 2 34.1
2020-Jul-09 20:45 059 1 34.0
2020-Jul-09 20:40 160 1 34.1
2020-Jul-09 20:35 330 1 34.9
2020-Jul-09 20:30 202 2 35.4
2020-Jul-09 20:25 218 3 35.7
2020-Jul-09 20:20 238 0 35.5
2020-Jul-09 20:15 269 1 35.5
2020-Jul-09 20:10 245 0 35.2
2020-Jul-09 20:05 190 1 35.1
2020-Jul-09 20:00 251 1 34.8
2020-Jul-09 19:55 352 0 35.0
2020-Jul-09 19:50 256 2 35.2
2020-Jul-09 19:45 249 7 35.4
2020-Jul-09 19:40 209 1 35.2
2020-Jul-09 19:35 284 0 35.2
2020-Jul-09 19:30 008 1 35.3
2020-Jul-09 19:25 212 0 35.4
2020-Jul-09 19:22 254 4 35.0
2020-Jul-09 19:20 264 0 35.0
2020-Jul-09 19:15 250 4 34.8
2020-Jul-09 19:10 324 2 34.9
2020-Jul-09 19:05 151 2 34.8
2020-Jul-09 19:00 311 4 34.7
2020-Jul-09 18:56 269 0 34.9
2020-Jul-09 18:55 240 4 34.5
2020-Jul-09 18:49 247 5 35.1
2020-Jul-09 18:47 342 3 34.8
2020-Jul-09 18:44 261 1 34.8
2020-Jul-09 18:39 251 1 34.9
2020-Jul-09 18:37 250 4 34.8
2020-Jul-09 18:34 265 0 35.1
2020-Jul-09 18:32 324 2 34.9
2020-Jul-09 18:29 351 1 34.9
2020-Jul-09 18:24 269 0 34.9
2020-Jul-09 18:19 308 0 34.8
2020-Jul-09 18:14 254 2 34.8
2020-Jul-09 18:09 223 2 35.4
2020-Jul-09 18:04 255 4 35.4
2020-Jul-09 17:59 268 0 35.5
2020-Jul-09 17:54 182 0 35.2
2020-Jul-09 17:49 254 4 35.0
2020-Jul-09 17:44 242 4 35.4
2020-Jul-09 17:39 089 1 35.6
2020-Jul-09 17:34 344 2 35.2
2020-Jul-09 17:29 342 3 34.8
2020-Jul-09 17:24 209 2 33.7
2020-Jul-09 17:19 223 3 34.5
2020-Jul-09 17:14 250 3 34.8
2020-Jul-09 17:09 234 3 34.3
2020-Jul-09 17:04 256 1 34.5
2020-Jul-09 15:54 231 1 33.7
2020-Jul-09 15:49 002 0 33.5
2020-Jul-09 15:44 250 4 32.9
2020-Jul-09 15:39 345 1 33.1
2020-Jul-09 15:34 253 0 33.1
2020-Jul-09 15:29 248 2 33.1
2020-Jul-09 15:24 298 0 33.5
2020-Jul-09 15:19 005 0 33.2
2020-Jul-09 15:14 257 2 32.7
2020-Jul-09 15:09 093 1 32.4
2020-Jul-09 15:04 246 0 32.0
2020-Jul-09 14:59 281 1 32.3
2020-Jul-09 14:54 320 0 32.1
2020-Jul-09 14:49 211 2 32.8
2020-Jul-09 14:47 096 0 29.6
2020-Jul-09 14:44 304 0 32.7
2020-Jul-09 14:39 348 2 32.7
2020-Jul-09 14:34 351 3 32.3
2020-Jul-09 14:32 327 0 29.4
2020-Jul-09 14:29 184 0 31.9
2020-Jul-09 14:24 043 1 31.6
2020-Jul-09 14:19 350 1 31.4
2020-Jul-09 14:14 253 2 31.0
2020-Jul-09 14:09 244 4 30.7
2020-Jul-09 14:04 269 1 30.9
2020-Jul-09 13:58 253 2 30.7
2020-Jul-09 13:53 213 2 30.5
2020-Jul-09 13:48 348 2 30.7
2020-Jul-09 13:43 304 2 30.3
2020-Jul-09 13:38 097 2 30.5
2020-Jul-09 13:33 255 3 30.2
2020-Jul-09 13:28 254 2 30.2
2020-Jul-09 13:26 096 0 29.6
2020-Jul-09 13:23 009 0 30.2
2020-Jul-09 13:18 343 0 30.0
2020-Jul-09 13:13 260 1 29.7
2020-Jul-09 13:08 241 2 29.6
2020-Jul-09 13:03 096 0 29.6
2020-Jul-09 12:58 327 0 29.4
2020-Jul-09 12:53 291 0 29.3
2020-Jul-09 12:48 262 0 29.0
2020-Jul-09 12:43 254 1 28.7
2020-Jul-09 12:38 271 0 28.5
2020-Jul-09 12:33 306 1 28.3
2020-Jul-09 12:28 355 1 28.0
2020-Jul-09 12:23 251 0 27.8
2020-Jul-09 12:18 027 1 27.7
2020-Jul-09 12:13 344 0 27.5
2020-Jul-09 12:08 242 0 27.4
2020-Jul-09 12:03 306 0 27.3
2020-Jul-09 11:58 302 0 27.2
2020-Jul-09 11:53 331 0 27.0
2020-Jul-09 11:48 349 0 27.0
2020-Jul-09 11:43 260 0 26.9
2020-Jul-09 11:38 006 0 26.8
2020-Jul-09 11:33 333 0 26.8
2020-Jul-09 11:28 264 0 26.8
2020-Jul-09 11:23 172 0 26.7
2020-Jul-09 11:18 305 0 26.6
2020-Jul-09 11:13 245 1 26.7
2020-Jul-09 11:08 247 1 26.7
2020-Jul-09 11:03 311 0 26.7
2020-Jul-09 10:58 316 0 26.6
2020-Jul-09 10:53 037 0 26.6
2020-Jul-09 10:48 278 1 26.5
2020-Jul-09 10:43 239 0 26.6
2020-Jul-09 10:38 033 0 26.7
2020-Jul-09 10:33 047 0 26.7
2020-Jul-09 10:28 238 0 26.6
2020-Jul-09 10:23 178 0 26.6
2020-Jul-09 10:18 037 0 26.7
2020-Jul-09 10:17 178 0 26.6
2020-Jul-09 10:16 183 0 26.6
2020-Jul-09 10:13 309 0 26.7
2020-Jul-09 10:08 279 0 26.7
2020-Jul-09 10:03 243 1 26.7
2020-Jul-09 10:02 183 0 26.6
2020-Jul-09 09:58 241 0 26.7
2020-Jul-09 09:57 172 0 26.7
2020-Jul-09 09:53 181 0 26.7
2020-Jul-09 09:48 195 0 26.6
2020-Jul-09 09:47 182 0 26.8
2020-Jul-09 09:43 178 0 26.5
2020-Jul-09 09:42 109 0 26.9
2020-Jul-09 09:38 183 0 26.6
2020-Jul-09 09:33 172 0 26.7
2020-Jul-09 09:28 103 0 26.7
2020-Jul-09 09:23 182 0 26.8
2020-Jul-09 09:18 109 0 26.9
2020-Jul-09 09:13 088 0 27.0
2020-Jul-09 09:08 009 0 26.9
2020-Jul-09 09:02 261 0 26.9
2020-Jul-09 08:57 235 0 26.9
2020-Jul-09 08:52 241 0 26.9
2020-Jul-09 08:47 218 0 26.8
2020-Jul-09 08:42 196 0 26.8
2020-Jul-09 08:37 171 0 27.0
2020-Jul-09 08:32 236 0 27.0
2020-Jul-09 08:27 222 0 27.1
2020-Jul-09 08:22 015 0 27.2
2020-Jul-09 08:17 006 0 27.3
2020-Jul-09 08:12 331 0 27.3
2020-Jul-09 08:07 165 0 27.2
2020-Jul-09 08:02 242 0 27.2
2020-Jul-09 07:57 300 0 27.3
2020-Jul-09 07:52 209 0 27.3
2020-Jul-09 07:47 303 0 27.3
2020-Jul-09 07:42 253 0 27.4
2020-Jul-09 07:37 359 0 27.5
2020-Jul-09 07:32 27.6
2020-Jul-09 07:27 241 0 27.6
2020-Jul-09 07:22 263 0 27.6
2020-Jul-09 07:17 234 0 27.6
2020-Jul-09 07:12 261 1 27.6
2020-Jul-09 07:07 252 1 27.6
2020-Jul-09 07:02 253 0 27.6
2020-Jul-09 06:57 261 0 27.8
2020-Jul-09 06:52 096 0 27.9
2020-Jul-09 06:47 027 0 28.0
2020-Jul-09 06:42 127 0 28.0
2020-Jul-09 06:37 036 0 28.1
2020-Jul-09 06:32 058 0 28.3
2020-Jul-09 06:27 008 0 28.4
2020-Jul-09 06:22 083 0 28.5
2020-Jul-09 06:17 235 0 28.5
2020-Jul-09 06:12 341 0 28.6
2020-Jul-09 06:07 317 0 28.6
2020-Jul-09 06:02 190 0 28.6
2020-Jul-09 05:57 352 0 28.8
2020-Jul-09 05:52 036 0 28.9
2020-Jul-09 05:47 256 0 28.8
2020-Jul-09 05:42 255 0 28.8
2020-Jul-09 05:37 183 0 28.8
2020-Jul-09 05:32 182 0 28.8
2020-Jul-09 05:27 132 1 28.9
2020-Jul-09 05:22 151 1 28.9
2020-Jul-09 05:17 245 1 29.0
2020-Jul-09 05:12 249 0 29.1
2020-Jul-09 05:07 180 0 29.2
2020-Jul-09 05:02 252 0 29.2
2020-Jul-09 04:57 307 0 29.2
2020-Jul-09 04:52 263 1 29.3
2020-Jul-09 04:47 235 0 29.3
2020-Jul-09 04:42 225 1 29.2
2020-Jul-09 04:37 127 0 29.3
2020-Jul-09 04:32 241 0 29.3
2020-Jul-09 04:27 237 0 29.4
2020-Jul-09 04:22 065 0 29.4
2020-Jul-09 04:17 253 0 29.4
2020-Jul-09 04:12 244 0 29.4
2020-Jul-09 04:07 123 0 29.4
2020-Jul-09 04:02 253 1 29.3
2020-Jul-09 03:56 112 0 29.3
2020-Jul-09 03:51 190 0 29.3
2020-Jul-09 03:46 176 0 29.2
2020-Jul-09 03:41 235 1 29.1
2020-Jul-09 03:36 202 0 29.1
2020-Jul-09 03:31 115 0 29.1
2020-Jul-09 03:26 159 1 29.2
2020-Jul-09 03:21 180 0 29.4
2020-Jul-09 03:16 223 1 29.3
2020-Jul-09 03:11 241 0 29.3
2020-Jul-09 03:06 231 0 29.3
2020-Jul-09 03:01 177 1 29.4
2020-Jul-09 02:56 179 0 29.5
2020-Jul-09 02:51 005 0 29.6
2020-Jul-09 02:46 252 0 29.6
2020-Jul-09 02:41 202 0 29.6
2020-Jul-09 02:36 269 0 29.5
2020-Jul-09 02:31 178 0 29.3
2020-Jul-09 02:26 178 1 29.2
2020-Jul-09 02:21 096 0 29.4
2020-Jul-09 02:16 047 0 29.5
2020-Jul-09 02:11 056 0 29.5
2020-Jul-09 02:06 133 0 29.4
2020-Jul-09 02:01 056 0 29.6
2020-Jul-09 01:56 066 0 29.6
2020-Jul-09 01:51 176 0 29.5
2020-Jul-09 01:46 024 0 29.5
2020-Jul-09 01:41 158 0 29.5
2020-Jul-09 01:36 083 0 29.5
2020-Jul-09 01:31 248 0 29.5
2020-Jul-09 01:26 206 0 29.5
2020-Jul-09 01:21 150 0 29.4
2020-Jul-09 01:16 164 0 29.7
2020-Jul-09 01:11 026 0 29.8
2020-Jul-09 01:06 089 0 29.9
2020-Jul-09 01:01 100 0 29.8
2020-Jul-09 00:56 063 0 30.1
2020-Jul-09 00:51 084 0 30.1
2020-Jul-09 00:46 336 0 30.3
2020-Jul-09 00:41 353 0 30.3
2020-Jul-09 00:36 355 0 30.4
2020-Jul-09 00:31 354 1 30.6
2020-Jul-09 00:26 068 0 30.8
2020-Jul-09 00:21 045 0 30.9
2020-Jul-09 00:16 238 2 30.8
2020-Jul-09 00:11 240 1 30.8
2020-Jul-09 00:06 246 1 30.8
2020-Jul-09 00:01 247 2 30.8
2020-Jul-08 23:56 278 1 31.0
2020-Jul-08 23:51 307 1 31.1
2020-Jul-08 23:46 286 2 31.1
2020-Jul-08 23:41 250 2 31.4
2020-Jul-08 23:36 235 3 31.6
2020-Jul-08 23:31 258 3 31.7
2020-Jul-08 23:26 250 1 31.9
2020-Jul-08 23:21 233 3 32.0
2020-Jul-08 23:16 196 3 32.3
2020-Jul-08 23:11 253 2 32.8
2020-Jul-08 23:06 315 1 33.0
2020-Jul-08 23:00 223 2 33.0
2020-Jul-08 22:55 248 4 33.5
2020-Jul-08 22:50 279 0 33.7
2020-Jul-08 22:45 236 1 33.7
2020-Jul-08 22:40 224 2 33.8
2020-Jul-08 22:35 112 2 34.1
2020-Jul-08 22:30 316 0 34.3
2020-Jul-08 22:25 102 0 34.7
2020-Jul-08 22:20 254 1 34.9
2020-Jul-08 22:15 225 2 34.6
2020-Jul-08 22:10 325 0 34.9
2020-Jul-08 22:05 300 1 34.8
2020-Jul-08 22:00 225 4 34.6
2020-Jul-08 21:55 311 0 34.6
2020-Jul-08 21:50 316 1 35.0
2020-Jul-08 21:45 357 1 35.3
2020-Jul-08 21:40 249 2 35.0
2020-Jul-08 21:35 322 1 35.1
2020-Jul-08 21:30 251 0 35.2
2020-Jul-08 21:25 287 1 35.0
2020-Jul-08 21:20 256 5 34.9
2020-Jul-08 21:15 255 3 34.7
2020-Jul-08 21:10 094 1 34.5
2020-Jul-08 21:05 347 2 34.3
2020-Jul-08 21:00 179 2 34.3
2020-Jul-08 20:55 153 0 33.7
2020-Jul-08 20:50 253 1 33.4
2020-Jul-08 20:45 166 2 34.1
2020-Jul-08 20:40 156 1 33.6
2020-Jul-08 20:35 190 1 34.6
2020-Jul-08 20:30 165 2 34.4
2020-Jul-08 20:25 021 0 34.0
2020-Jul-08 20:20 330 1 33.8
2020-Jul-08 20:15 357 1 33.5
2020-Jul-08 20:10 104 0 33.4
2020-Jul-08 20:05 113 1 33.7
2020-Jul-08 20:00 001 2 33.7
2020-Jul-08 19:55 330 0 33.4
2020-Jul-08 19:50 358 1 33.2
2020-Jul-08 19:45 349 1 33.8
2020-Jul-08 19:40 358 0 34.4
2020-Jul-08 19:35 239 0 34.3
2020-Jul-08 19:30 233 0 34.0
2020-Jul-08 19:25 096 0 34.3
2020-Jul-08 19:20 095 2 34.1
2020-Jul-08 19:15 349 1 34.1
2020-Jul-08 19:10 321 0 33.4
2020-Jul-08 19:05 175 1 33.9
2020-Jul-08 19:00 106 1 34.4
2020-Jul-08 18:55 256 1 34.1
2020-Jul-08 18:50 160 3 33.4
2020-Jul-08 18:45 018 0 33.8
2020-Jul-08 18:40 169 3 34.2
2020-Jul-08 18:35 296 0 33.9
2020-Jul-08 18:30 155 1 33.9
2020-Jul-08 18:25 159 1 34.6
2020-Jul-08 18:20 159 1 35.1
2020-Jul-08 18:15 257 0 34.7
2020-Jul-08 18:09 150 0 34.4
2020-Jul-08 18:04 169 2 34.2
2020-Jul-08 17:59 086 1 34.4
2020-Jul-08 17:54 065 1 34.8
2020-Jul-08 17:49 188 2 34.0
2020-Jul-08 17:44 170 2 34.1
2020-Jul-08 17:39 191 2 34.3
2020-Jul-08 17:34 211 1 34.1
2020-Jul-08 17:29 181 0 34.3
2020-Jul-08 17:24 064 0 33.9
2020-Jul-08 17:19 191 1 33.5
2020-Jul-08 17:14 240 1 33.8
2020-Jul-08 17:09 092 0 34.1
2020-Jul-08 17:04 351 0 34.5
2020-Jul-08 16:59 184 0 34.4
2020-Jul-08 16:54 213 1 34.5
2020-Jul-08 16:49 103 0 34.2
2020-Jul-08 16:44 100 0 34.5
2020-Jul-08 16:39 348 0 33.9
2020-Jul-08 16:34 133 0 32.6
2020-Jul-08 16:29 199 0 32.6
2020-Jul-08 16:24 190 0 33.0
2020-Jul-08 16:19 097 1 32.7
2020-Jul-08 16:14 097 1 32.1
2020-Jul-08 16:09 176 0 32.1
2020-Jul-08 16:04 208 1 32.0
2020-Jul-08 15:59 093 0 32.4
2020-Jul-08 15:54 344 0 32.3
2020-Jul-08 15:49 107 0 32.5
2020-Jul-08 15:44 244 0 32.8
2020-Jul-08 15:39 355 1 32.1
2020-Jul-08 15:34 324 0 32.3
2020-Jul-08 15:29 224 0 32.5
2020-Jul-08 15:24 352 0 32.6
2020-Jul-08 15:19 093 0 32.1
2020-Jul-08 15:14 182 0 31.9
2020-Jul-08 15:09 148 1 32.1
2020-Jul-08 15:04 177 0 32.1
2020-Jul-08 14:59 327 0 32.1
2020-Jul-08 14:54 130 0 32.2
2020-Jul-08 14:49 151 1 32.0
2020-Jul-08 14:44 226 1 32.1
2020-Jul-08 14:39 131 1 32.6
2020-Jul-08 14:34 340 1 32.1
2020-Jul-08 14:29 004 0 31.8
2020-Jul-08 14:24 300 0 31.8
2020-Jul-08 14:19 153 0 31.7
2020-Jul-08 14:14 096 0 31.5
2020-Jul-08 14:09 256 2 31.1
2020-Jul-08 14:04 248 0 31.1
2020-Jul-08 13:59 121 0 31.3
2020-Jul-08 13:54 339 0 31.4
2020-Jul-08 13:49 113 1 31.2
2020-Jul-08 13:44 234 1 31.2
2020-Jul-08 13:39 128 0 30.9
2020-Jul-08 13:34 209 0 30.8
2020-Jul-08 13:29 252 2 30.6
2020-Jul-08 13:24 252 1 30.5
2020-Jul-08 13:19 166 1 30.1
2020-Jul-08 13:14 196 1 30.1
2020-Jul-08 13:09 257 1 30.0
2020-Jul-08 13:03 311 1 29.9
2020-Jul-08 12:58 278 0 30.0
2020-Jul-08 12:53 231 3 29.9
2020-Jul-08 12:48 240 2 29.7
2020-Jul-08 12:43 344 0 29.8
2020-Jul-08 12:38 252 1 29.3
2020-Jul-08 12:33 163 1 29.0
2020-Jul-08 12:28 155 1 28.6
2020-Jul-08 12:23 253 0 28.3
2020-Jul-08 12:18 240 0 28.2
2020-Jul-08 12:13 251 0 27.9
2020-Jul-08 12:08 166 0 27.7
2020-Jul-08 12:03 146 0 27.6
2020-Jul-08 11:58 107 0 27.4
2020-Jul-08 11:53 237 0 27.2
2020-Jul-08 11:48 196 0 26.9
2020-Jul-08 11:43 171 0 26.7
2020-Jul-08 11:38 236 0 26.4
2020-Jul-08 11:33 070 0 26.2
2020-Jul-08 11:28 255 0 26.1
2020-Jul-08 11:23 108 0 26.1
2020-Jul-08 11:18 354 0 26.0
2020-Jul-08 11:13 010 0 26.0
2020-Jul-08 11:08 297 0 25.8
2020-Jul-08 11:03 194 0 25.8
2020-Jul-08 10:58 057 0 25.8
2020-Jul-08 10:53 161 0 25.7
2020-Jul-08 10:50 006 0 25.8
2020-Jul-08 10:48 017 0 25.7
2020-Jul-08 10:45 035 0 25.8
2020-Jul-08 10:43 021 0 25.7
2020-Jul-08 10:40 027 0 25.8
2020-Jul-08 10:38 042 0 25.7
2020-Jul-08 10:33 006 0 25.8
2020-Jul-08 10:28 035 0 25.8
2020-Jul-08 10:23 027 0 25.8
2020-Jul-08 10:18 043 0 25.8
2020-Jul-08 10:13 071 0 25.8
2020-Jul-08 10:08 165 0 25.8
2020-Jul-08 10:03 108 0 25.8
2020-Jul-08 09:58 053 0 25.9
2020-Jul-08 09:53 017 0 25.9
2020-Jul-08 09:48 235 0 25.8
2020-Jul-08 09:43 168 0 25.7
2020-Jul-08 09:38 166 0 25.7
2020-Jul-08 09:33 195 0 25.8
2020-Jul-08 09:28 181 0 25.8
2020-Jul-08 09:23 183 0 25.8
2020-Jul-08 09:18 156 1 25.7
2020-Jul-08 09:13 184 0 25.7
2020-Jul-08 09:08 187 0 25.8
2020-Jul-08 09:03 187 0 25.8
2020-Jul-08 08:58 183 0 25.8
2020-Jul-08 08:53 344 0 25.9
2020-Jul-08 08:48 167 0 25.9
2020-Jul-08 08:43 006 0 25.9
2020-Jul-08 08:38 350 0 26.0
2020-Jul-08 08:33 003 0 26.0
2020-Jul-08 08:28 203 0 25.9
2020-Jul-08 08:23 192 0 25.9
2020-Jul-08 08:18 339 0 26.0
2020-Jul-08 08:13 247 0 25.9
2020-Jul-08 08:07 177 0 26.0
2020-Jul-08 08:02 203 0 26.1
2020-Jul-08 07:57 079 0 26.2
2020-Jul-08 07:52 154 0 26.2
2020-Jul-08 07:47 204 0 26.1
2020-Jul-08 07:42 234 0 26.1
2020-Jul-08 07:37 219 0 26.1
2020-Jul-08 07:32 214 0 26.1
2020-Jul-08 07:27 010 0 26.1
2020-Jul-08 07:22 024 0 26.1
2020-Jul-08 07:17 355 0 26.1
2020-Jul-08 07:12 340 0 26.1
2020-Jul-08 07:07 187 0 26.0
2020-Jul-08 07:02 278 0 26.1
2020-Jul-08 06:57 187 0 26.0
2020-Jul-08 06:52 165 0 26.1
2020-Jul-08 06:47 010 0 26.1
2020-Jul-08 06:42 351 0 26.0
2020-Jul-08 06:37 013 0 26.0
2020-Jul-08 06:32 086 0 25.9
2020-Jul-08 06:27 212 0 25.9
2020-Jul-08 06:22 191 0 26.0
2020-Jul-08 06:17 265 0 26.0
2020-Jul-08 06:12 187 0 25.9
2020-Jul-08 06:07 161 0 26.0
2020-Jul-08 06:02 350 0 26.1
2020-Jul-08 05:57 040 0 26.0
2020-Jul-08 05:52 244 0 26.0
2020-Jul-08 05:47 244 0 26.1
2020-Jul-08 05:42 083 0 26.1
2020-Jul-08 05:37 056 0 26.1
2020-Jul-08 05:32 186 0 26.0
2020-Jul-08 05:27 175 0 26.0
2020-Jul-08 05:22 242 0 26.1
2020-Jul-08 05:17 237 0 26.1
2020-Jul-08 05:12 069 0 26.2
2020-Jul-08 05:07 033 0 26.2
2020-Jul-08 05:02 016 0 26.2
2020-Jul-08 04:57 082 0 26.3
2020-Jul-08 04:52 087 0 26.3
2020-Jul-08 04:47 186 0 26.5
2020-Jul-08 04:42 066 0 26.6
2020-Jul-08 04:37 040 0 26.6
2020-Jul-08 04:32 094 0 26.6
2020-Jul-08 04:27 022 0 26.7
2020-Jul-08 04:22 227 0 26.7
2020-Jul-08 04:17 078 0 26.7
2020-Jul-08 04:12 061 0 26.7
2020-Jul-08 04:07 262 0 26.7
2020-Jul-08 04:02 335 0 26.7
2020-Jul-08 03:57 063 0 26.7
2020-Jul-08 03:52 275 0 26.8
2020-Jul-08 03:47 165 0 26.6
2020-Jul-08 03:42 258 0 26.8
2020-Jul-08 03:37 307 0 26.8
2020-Jul-08 03:32 330 0 26.7
2020-Jul-08 03:27 044 0 26.8
2020-Jul-08 03:22 176 0 26.7
2020-Jul-08 03:16 074 0 27.0
2020-Jul-08 03:11 087 0 26.9
2020-Jul-08 03:06 358 0 27.1
2020-Jul-08 03:01 084 0 27.1